Tracking 20241 objects as of 25-Jan-2020
HD Live streaming from Space Station
objects crossing your sky now

CZ-2D DEB

Track CZ-2D DEB now!
10-day predictions


NORAD ID: 38301
Int'l Code: 2010-027F
Perigee: 550.9 km
Apogee: 794.0 km
Inclination: 97.9 °
Period: 98.0 minutes
Semi major axis: 7043 km
RCS: 0.0012 m2 (small)
Launch date: June 15, 2010
Source: People's Republic of China (PRC)
Launch site: Jiuquan Satellite Launch Center, China (JSC)

Note: This is SATELLITE DEBRIS
aabbcc
Your satellite tracking list
Your tracking list is empty




NASA's NSSDC Master Catalog

Two Line Element Set (TLE):
1 38301U 10027F   20024.55112361 +.00000561 +00000-0 +85164-4 0  9997
2 38301 097.8804 286.7341 0172563 299.0267 182.0040 14.68671510501766
Source of the keplerian elements: AFSPC